Home > Weather > Waterloo > Past weeks

Flag for Canada Weather for the Past 2 Weeks in Waterloo, Ontario, Canada

Now
10 °F

Overcast.


Feels Like: -5 °F
Forecast: 5 / 19 °F
Wind: 13 mph from Southwest

Location: Waterloo Well

Current Time: Feb 12, 2016 at 8:03:59 AM

Latest Report: Feb 12, 2016 at 7:00 AM


Visibility: 9 mi

Pressure: 30.06 "Hg

Humidity: 79%

Dew point: 5 °F

Location of WaterlooLocation

Historic Weather in Waterloo — Graph

°F

Waterloo Temperature Yesterday

Maximum temperature yesterday: 10 °F (at 1:00 PM)
Minimum temperature yesterday: 1 °F (at 4:00 AM)
Average temperature yesterday: 7 °F

High & Low Weather Summary for the Past Weeks

 TemperatureHumidityPressure
High57 °F (Feb 3, 1:52 PM)100% (Jan 31, 2:00 AM)30.34 "Hg (Jan 31, 2:00 AM)
Low1 °F (Feb 11, 4:00 AM)44% (Feb 3, 3:00 PM)29.46 "Hg (Jan 31, 11:00 PM)
Average29 °F82%29.86 "Hg
* Reported Jan 28 7:00 AM — Feb 12 7:00 AM, Waterloo, Weather by CustomWeather, © 2016

Note: Actual official high and low records may vary slightly from our data, if they occured in-between our weather recording intervals... More about our weather records

Advertising

Waterloo Weather History for the Previous 24 Hours

 ConditionsComfort  
Time TempWeatherWind HumidityBarometerVisibility
7:00 AM
Fri, Feb 12
10 °FOvercast.13 mph79%30.06 "Hg9 mi
6:04 AM9 °FPassing clouds.8 mph85%30.08 "Hg9 mi
5:00 AM10 °FPassing clouds.8 mph79%30.10 "Hg9 mi
4:00 AM10 °FLight snow. Overcast.8 mph72%30.11 "Hg9 mi
3:00 AM9 °FPassing clouds.9 mph72%30.14 "Hg9 mi
2:00 AM9 °FLight snow. Overcast.15 mph72%30.15 "Hg9 mi
1:59 AM9 °FLight snow. Overcast.15 mph72%30.16 "Hg9 mi
1:00 AM9 °FPassing clouds.14 mph78%30.17 "Hg9 mi
12:00 AM9 °FPassing clouds.10 mph78%30.19 "Hg9 mi
11:00 PM
Thu, Feb 11
10 °FLight snow. Overcast.12 mph79%30.21 "Hg9 mi
10:47 PM10 °FOvercast.12 mph79%30.21 "Hg9 mi
10:04 PM9 °FPassing clouds.7 mph85%30.22 "Hg9 mi
9:01 PM9 °FLight snow. Overcast.9 mph85%30.23 "Hg9 mi
8:00 PM10 °FLight snow. Mostly cloudy.10 mph79%30.23 "Hg9 mi
7:00 PM9 °FPassing clouds.6 mph72%30.24 "Hg9 mi
6:00 PM9 °FPassing clouds.10 mph72%30.21 "Hg9 mi
5:00 PM10 °FSunny.12 mph61%30.19 "Hg9 mi
4:00 PM10 °FPassing clouds.17 mph67%30.18 "Hg9 mi
3:00 PM10 °FPartly sunny.16 mph67%30.14 "Hg9 mi
2:00 PM10 °FOvercast.18 mph67%30.13 "Hg7 mi
1:00 PM10 °FPartly sunny.16 mph67%30.12 "Hg9 mi
12:00 PM9 °FSunny.13 mph61%30.11 "Hg9 mi
11:00 AM9 °FSunny.13 mph56%30.09 "Hg9 mi
10:00 AM7 °FSunny.12 mph61%30.07 "Hg9 mi
9:00 AM5 °FSunny.9 mph66%30.06 "Hg9 mi
8:00 AM1 °FSunny.8 mph71%30.03 "Hg9 mi
Weather by CustomWeather, © 2016

See weather overviewHow to use our weather pages